RH
20 16 15 16 18 18 19 21 31 24 20 18 15 14 13 16 15 14 15 16 19 27 34 41 46 48 47 54 54 54 55 54 64 73 69 75 78 80 78 80 76 71 70 66
26 17 16 17 14 13 14 15 17 16 17 13 12 11 12 13 16 18 20 23 27 29 36 42 46 48 53 56 58 56 53 52 55 56 55 59 58 58 60 63 61 67 68 76
41 22 23 35 22 17 16 14 16 23 18 14 14 13 15 15 15 21 27 30 34 36 41 44 46 49 51 50 48 47 47 47 48 48 51 53 50 50 56 58 57 66 68 76
51 63 63 26 16 16 17 16 14 14 15 14 14 12 16 17 19 28 32 36 39 40 41 40 40 41 43 41 43 45 46 47 48 49 49 48 48 51 55 62 69 78 77 74
64 51 31 21 17 20 21 19 14 16 15 14 13 20 26 24 25 31 35 36 35 35 37 38 38 38 39 40 41 42 44 45 46 48 51 54 59 62 63 62 64 66 62 67
56 55 61 30 18 16 16 30 15 14 15 17 18 39 22 29 30 34 34 34 36 36 36 37 37 36 38 40 42 44 47 46 46 47 50 56 63 66 67 67 68 65 72 79
65 59 38 19 15 15 38 30 17 15 16 17 21 25 27 33 37 33 33 34 36 35 37 37 37 39 42 44 46 44 44 45 47 51 56 60 62 62 62 62 56 59 55 52
64 66 73 21 21 29 27 24 21 21 20 22 20 33 35 36 36 34 35 36 35 40 41 39 37 39 42 45 45 48 51 54 57 57 50 42 41 38 36 40 48 54 60 57
43 43 33 29 27 22 18 19 22 24 19 21 30 35 36 36 36 36 35 35 36 40 43 41 38 39 45 50 49 53 49 42 38 36 34 34 38 39 37 39 46 51 46 52
43 33 26 28 26 22 21 23 21 21 20 23 34 35 36 36 36 37 34 36 37 43 45 47 43 43 48 46 41 40 41 40 38 37 36 32 27 26 32 44 47 46 48 50
38 29 26 26 26 26 22 24 23 22 22 25 32 34 34 36 37 34 34 37 41 44 44 44 41 41 37 36 35 38 39 38 39 37 32 30 33 37 43 57 58 54 58 56
58 34 46 32 28 30 25 24 27 26 26 29 30 32 33 36 36 36 38 42 41 43 44 43 41 39 36 35 35 37 38 39 47 45 38 29 32 53 71 66 66 68 66 70
37 35 40 36 36 30 28 25 26 28 25 30 30 31 33 37 38 49 42 42 44 45 45 43 41 41 37 37 37 38 40 42 46 46 39 38 39 42 42 70 64 66 64 59
30 44 47 38 34 41 35 29 38 28 28 30 31 32 36 39 43 43 44 44 44 45 46 44 43 44 40 35 35 40 42 68 39 40 42 43 43 48 47 55 63 60 64 52
49 49 50 50 44 44 41 42 41 37 35 36 36 40 41 45 47 45 44 45 46 46 44 42 44 40 34 31 32 39 39 42 52 59 58 57 54 53 51 53 56 56 53 54
54 51 48 52 45 46 46 46 44 45 45 46 46 46 45 46 45 52 52 52 55 51 53 70 54 44 38 35 38 43 55 62 58 51 52 52 53 54 50 55 58 58 58 59
64 60 57 59 56 56 53 50 49 53 54 54 54 60 53 67 70 76 78 75 88 92 88 83 73 57 42 35 34 38 46 54 62 51 50 51 56 59 55 59 62 60 62 71
63 59 59 55 58 60 62 62 64 65 68 69 92 90 89 89 92 94 94 94 96 95 94 85 55 43 40 41 42 46 51 51 53 57 55 64 60 55 61 63 61 62 64 64
82 84 80 73 71 80 90 94 96 95 94 92 92 95 95 95 95 96 96 96 96 90 86 77 68 55 52 60 51 55 60 63 57 52 61 64 70 63 67 71 70 71 69 69
88 89 90 93 92 92 95 97 96 96 97 96 96 96 96 97 96 96 95 94 90 81 69 60 53 53 53 56 57 54 63 69 59 60 69 70 74 78 76 70 71 73 77 77
97 96 96 97 98 97 98 98 97 97 98 97 95 96 96 97 96 96 93 88 89 83 68 64 56 52 50 48 44 72 71 73 73 72 76 77 78 75 75 76 77 78 79 78
97 96 97 96 96 96 97 97 96 96 96 96 96 96 95 94 94 94 95 86 82 72 63 62 60 69 60 65 58 73 68 67 70 74 76 77 78 79 79 78 78 79 78 78
96 96 95 95 96 96 95 95 96 95 96 96 96 95 93 91 90 89 89 78 68 68 69 83 81 74 65 83 81 77 75 74 75 76 78 80 82 83 81 79 79 79 79 77
94 94 95 96 94 90 91 91 89 91 95 93 95 96 91 91 88 76 80 87 89 90 90 88 83 73 80 78 79 79 78 79 80 81 79 78 81 84 81 80 79 77 76 76
92 91 90 88 82 87 85 85 81 83 83 83 83 80 80 77 90 91 88 85 79 81 89 82 76 75 79 79 80 79 79 81 84 79 77 80 81 82 81 80 79 78 77 78
77 74 73 76 78 77 79 72 78 78 78 84 84 88 88 83 81 82 84 78 75 71 78 82 81 77 78 81 80 78 78 76 79 80 82 79 82 82 81 76 76 76 78 78
67 67 63 63 64 68 71 72 79 81 80 82 84 80 76 83 84 76 79 80 78 78 80 81 77 80 74 80 77 81 80 80 84 79 77 80 80 80 78 78 78 78 78 80
Wind_Speed
24 20 18 20 21 21 22 19 18 17 17 16 16 9 9 7 2 4 6 7 7 7 9 9 10 9 10 8 7 6 6 6 7 7 7 6 5 6 7 7 7 8 7 8
21 22 22 22 18 17 20 20 18 21 20 15 9 8 7 8 4 7 5 5 5 6 9 10 10 11 11 10 10 8 8 8 8 7 7 6 6 5 6 7 8 7 8 9
16 20 20 21 17 19 20 20 17 18 17 15 15 13 10 13 7 8 7 7 8 8 9 9 11 11 12 11 10 11 11 10 9 9 9 8 8 8 8 8 10 10 9 10
10 6 20 10 18 22 23 21 18 19 18 18 16 12 6 2 8 9 10 10 11 11 11 11 12 13 13 12 12 12 11 11 10 10 10 9 9 9 9 8 9 8 7 7
11 13 14 18 20 12 15 16 18 18 16 16 12 3 4 4 7 11 12 13 13 12 13 13 13 13 14 13 12 12 12 11 11 11 11 10 10 10 9 8 7 7 4 1
6 16 19 11 20 13 14 17 16 15 14 9 5 7 10 15 14 14 13 13 14 14 14 14 13 13 14 13 13 13 12 12 12 11 11 10 9 8 5 5 5 3 3 3
12 10 8 10 14 11 13 9 2 5 6 8 9 12 10 17 17 17 15 15 14 14 13 13 13 14 14 13 13 13 13 12 11 10 9 9 7 6 5 5 5 4 2 2
9 12 15 3 9 14 14 15 7 9 10 8 7 9 17 19 19 18 18 17 15 13 13 13 13 13 14 14 13 12 12 11 10 9 7 6 7 5 5 4 3 1 1 2
8 4 9 13 14 16 16 12 8 10 10 8 13 16 18 19 19 18 18 16 14 14 14 12 12 12 13 13 13 12 12 11 10 8 6 5 5 4 3 4 3 3 2 3
13 10 13 10 15 16 10 15 13 9 10 11 17 17 19 18 17 17 16 16 14 16 15 13 11 12 13 13 12 11 11 10 8 7 6 5 4 3 4 4 3 3 3 4
17 20 18 19 12 15 15 11 11 9 10 13 16 19 20 19 18 17 16 15 15 14 13 13 13 12 11 11 11 11 9 8 7 5 5 5 7 6 4 7 6 4 4 4
8 10 6 13 6 13 12 15 12 12 12 14 17 19 20 18 17 17 17 15 15 15 15 14 13 12 11 10 10 10 9 6 4 4 3 3 3 7 10 11 8 8 7 6
14 6 7 10 9 7 13 10 9 12 12 14 16 17 19 16 16 15 16 16 15 15 14 13 12 11 9 8 8 8 8 8 4 3 3 3 2 2 2 5 7 8 7 3
10 5 8 9 5 4 7 8 2 8 9 11 13 14 15 14 14 15 15 14 14 14 13 13 12 11 9 10 10 9 8 6 4 4 3 2 3 2 2 2 3 2 9 2
6 4 8 5 6 4 5 2 5 8 9 11 12 14 15 16 15 14 14 14 15 14 13 13 12 11 9 8 9 7 5 5 4 4 4 2 2 1 2 2 3 4 4 2
9 8 8 8 7 4 4 4 6 7 6 8 9 11 13 13 13 15 15 14 15 12 13 10 10 10 9 7 8 8 7 6 4 3 2 1 0 1 2 3 3 4 4 4
9 8 9 7 5 2 3 3 5 10 8 9 13 11 11 17 18 16 16 16 16 13 12 11 11 8 6 5 5 4 4 4 3 1 1 1 2 2 2 3 4 4 4 4
10 8 10 9 2 2 5 7 8 9 13 14 16 18 17 16 16 15 14 14 13 12 11 10 8 7 7 7 6 4 3 3 2 1 1 1 3 3 3 4 4 5 5 5
13 14 15 15 12 13 13 14 15 15 16 15 17 16 15 14 14 15 14 13 13 12 9 8 8 8 7 6 4 4 3 2 0 1 2 1 4 3 4 4 5 5 6 6
15 15 16 15 14 12 13 13 14 15 14 16 16 15 15 12 11 11 12 12 11 9 10 8 7 6 6 5 4 3 2 1 2 2 2 4 4 4 5 4 5 6 6 6
16 16 16 17 15 13 14 13 14 15 14 15 16 15 14 12 11 10 11 9 10 9 9 7 5 4 4 2 0 2 1 2 3 3 4 4 5 5 5 6 6 6 7 7
15 15 16 16 16 18 16 15 16 15 16 16 15 14 13 12 12 13 10 9 7 7 6 5 5 5 3 3 2 2 3 3 4 4 5 5 5 6 6 6 6 7 7 8
15 16 16 17 17 17 17 15 14 15 15 13 12 12 11 8 5 6 7 7 6 5 5 6 5 3 1 3 2 3 4 4 4 5 5 5 5 6 6 7 7 7 8 8
15 16 15 14 14 15 16 14 14 15 13 13 12 10 7 6 7 7 8 10 8 4 5 4 4 3 4 3 3 4 4 5 5 6 6 5 6 6 6 7 7 7 8 8
16 16 15 14 14 11 12 11 11 11 12 11 11 10 10 8 7 6 6 6 5 3 5 5 3 3 4 4 5 5 5 6 6 6 7 7 7 7 7 7 7 8 8 9
15 12 12 16 13 10 9 9 9 9 8 7 8 7 7 6 6 5 6 5 4 4 5 4 5 5 6 5 5 6 6 6 7 6 7 7 8 8 7 8 8 8 8 9
13 13 10 11 11 10 10 10 9 9 9 8 7 7 7 6 5 5 5 5 5 4 4 5 5 5 5 6 8 8 7 7 7 6 7 8 8 8 7 8 8 8 8 8
Wind_Direction
231 240 245 223 216 223 236 240 238 252 255 260 251 266 283 42 39 245 249 234 203 187 160 148 144 155 143 133 122 130 153 173 127 141 161 163 171 172 179 169 194 118 105 121
236 236 241 247 244 250 247 236 244 257 255 263 287 285 268 283 227 250 207 200 188 179 146 136 146 136 124 130 131 142 143 134 122 139 139 138 130 104 109 70 94 120 124 114
237 236 237 244 246 253 251 247 243 245 260 262 257 250 231 242 227 217 180 164 155 142 131 129 121 129 126 128 130 121 114 117 118 114 112 113 114 120 120 133 135 127 142 144
221 235 233 240 239 239 240 253 249 250 251 261 278 273 336 218 204 179 161 147 138 130 125 120 114 111 117 115 113 111 108 107 109 111 113 114 115 111 123 126 132 135 146 167
228 221 244 235 238 237 244 249 247 253 260 254 267 85 185 220 161 162 154 145 137 130 126 124 120 119 118 115 114 113 111 110 109 113 114 115 117 125 125 136 148 163 146 168
199 231 232 226 247 212 254 256 251 256 251 257 213 228 257 170 152 144 145 142 140 135 129 125 126 125 121 118 116 113 114 114 118 122 121 112 113 117 108 101 103 128 142 215
218 239 247 220 241 189 200 250 337 246 277 262 236 233 127 150 156 157 154 146 141 141 135 132 132 130 125 123 121 121 122 118 110 104 108 118 125 137 153 162 175 153 192 294
230 235 237 215 160 204 223 253 216 243 259 255 234 136 150 157 160 155 155 150 150 141 139 138 138 137 133 128 123 117 114 111 112 121 141 144 129 127 129 109 110 147 35 330
218 238 229 195 218 220 250 281 245 247 232 221 163 168 166 164 162 161 159 156 153 144 140 141 142 142 130 123 124 132 136 127 120 119 115 108 106 102 107 68 37 46 338 338
256 259 261 238 241 269 266 244 259 230 236 198 180 176 174 168 167 167 164 159 153 150 149 145 140 134 137 139 137 131 127 125 122 121 113 107 110 77 81 52 31 17 359 352
254 258 267 276 279 267 257 250 245 233 226 197 181 181 177 173 170 170 164 158 156 155 148 144 140 135 134 136 137 131 126 123 115 121 122 118 81 46 70 63 37 4 26 355
248 270 283 291 270 330 266 238 236 234 210 182 188 182 178 177 174 169 164 158 159 152 148 145 140 138 135 134 135 133 128 120 107 121 99 98 107 131 76 102 107 95 69 31
249 295 298 296 308 309 294 257 235 239 220 197 183 181 181 173 173 162 157 160 154 151 143 140 130 125 121 109 119 123 122 122 114 121 98 85 94 75 148 149 159 150 132 111
259 327 276 249 290 309 274 243 175 220 223 194 180 170 174 167 151 159 158 154 145 137 135 126 125 110 108 104 99 88 89 31 105 97 81 91 69 42 19 3 316 221 168 87
296 256 283 298 277 275 264 178 194 190 187 178 168 166 162 161 163 155 146 131 127 127 121 117 104 98 91 95 99 102 96 78 72 83 59 42 51 33 340 312 308 301 311 262
319 295 279 268 270 246 225 186 174 159 163 146 158 157 151 143 141 114 117 123 130 121 96 94 93 86 81 91 107 104 84 62 45 95 126 99 33 335 311 308 298 301 309 332
324 327 328 284 268 226 206 176 167 143 140 147 131 132 125 106 100 92 87 88 88 89 82 75 77 85 81 86 78 86 94 94 34 93 52 5 332 307 312 302 297 305 318 48
347 15 0 350 35 111 101 95 115 113 113 98 89 97 100 103 107 106 104 102 96 86 83 90 93 82 71 63 70 73 80 81 74 40 315 310 335 314 309 299 303 306 311 320
36 42 40 35 48 64 72 74 76 82 86 92 91 91 96 101 110 111 113 110 106 105 97 101 104 97 82 54 68 74 73 57 254 185 319 272 257 305 299 310 309 309 305 307
53 57 63 57 56 72 85 81 86 87 92 96 97 98 98 98 105 106 96 85 87 102 112 107 97 88 84 64 16 71 55 17 317 316 343 317 304 316 298 284 289 295 306 308
53 56 58 64 55 54 60 70 81 80 82 86 93 94 94 89 88 95 95 93 94 99 101 100 92 98 77 87 302 49 5 326 318 312 310 302 299 283 302 300 306 306 308 311
57 60 60 65 63 59 55 62 70 76 79 81 82 84 87 84 76 70 78 104 120 127 111 98 80 40 73 301 17 335 324 308 307 302 298 300 299 301 301 307 307 306 312 307
59 60 60 60 62 64 60 55 60 69 72 73 77 78 76 74 80 103 100 103 109 99 90 85 108 111 13 290 341 321 316 312 297 299 296 295 299 303 303 305 309 307 301 310
62 60 62 64 67 65 66 63 66 67 68 66 59 54 67 87 77 66 75 84 98 85 72 92 99 50 322 331 327 323 313 312 310 300 295 296 286 289 298 302 299 301 306 302
57 56 55 58 62 62 67 68 72 71 72 69 65 61 54 40 66 80 87 93 81 24 100 94 74 355 308 336 331 323 313 309 320 326 310 304 304 302 298 301 301 306 314 301
63 62 61 55 51 47 49 55 56 40 44 67 61 53 56 58 66 73 73 57 54 27 25 4 19 345 329 331 337 319 311 310 308 312 320 309 303 298 299 300 302 303 302 305
54 47 56 54 47 45 41 41 42 42 32 16 50 41 40 44 55 47 28 32 15 10 358 360 340 358 336 343 320 318 319 314 319 326 316 304 300 302 304 306 309 310 306 302